Stündliche Wetter Caucaia

Heute, 25 Oktober, Sonntag

Zeit Temperatur Niederschläge Wind Luftdruck Luftfeuchtigkeit
00:00 +28°C° 0.1 mm 5 m/S 755 mmHg 79%
01:00 +28°C° 0.1 mm 5 m/S 754 mmHg 80%
02:00 +28°C° 0.1 mm 5 m/S 754 mmHg 81%
03:00 +28°C° 0.1 mm 5 m/S 754 mmHg 82%
04:00 +28°C° 0.1 mm 5 m/S 754 mmHg 81%
05:00 +28°C° 0.1 mm 5 m/S 755 mmHg 81%
06:00 +28°C° 0.1 mm 5 m/S 755 mmHg 80%
07:00 +29°C° 0 mm 5 m/S 756 mmHg 73%
08:00 +32°C° 0 mm 5 m/S 756 mmHg 65%
09:00 +33°C° 0 mm 6 m/S 757 mmHg 58%
10:00 +34°C° 0 mm 6 m/S 756 mmHg 54%
11:00 +35°C° 0 mm 6 m/S 755 mmHg 51%
12:00 +36°C° 0 mm 6 m/S 755 mmHg 47%
13:00 +35°C° 0 mm 6 m/S 754 mmHg 48%
14:00 +35°C° 0 mm 6 m/S 754 mmHg 49%
15:00 +34°C° 0 mm 6 m/S 753 mmHg 50%
16:00 +33°C° 0 mm 5 m/S 753 mmHg 57%
17:00 +30°C° 0 mm 5 m/S 754 mmHg 64%
18:00 +29°C° 0 mm 4 m/S 754 mmHg 70%
19:00 +29°C° 0 mm 4 m/S 755 mmHg 74%
20:00 +28°C° 0 mm 4 m/S 755 mmHg 78%
21:00 +28°C° 0 mm 4 m/S 756 mmHg 82%
22:00 +28°C° 0 mm 4 m/S 756 mmHg 82%
23:00 +28°C° 0 mm 4 m/S 755 mmHg 81%

Morgen, 26 Oktober, Montag

Zeit Temperatur Niederschläge Wind Luftdruck Luftfeuchtigkeit
00:00 +28°C° 0 mm 5 m/S 755 mmHg 81%
01:00 +28°C° 0 mm 5 m/S 755 mmHg 80%
02:00 +28°C° 0 mm 5 m/S 755 mmHg 79%
03:00 +28°C° 0 mm 5 m/S 754 mmHg 78%
04:00 +28°C° 0 mm 5 m/S 755 mmHg 77%
05:00 +28°C° 0 mm 5 m/S 755 mmHg 76%
06:00 +29°C° 0 mm 5 m/S 755 mmHg 75%
07:00 +30°C° 0 mm 5 m/S 756 mmHg 69%
08:00 +32°C° 0 mm 5 m/S 756 mmHg 64%
09:00 +33°C° 0 mm 5 m/S 756 mmHg 58%
10:00 +34°C° 0 mm 5 m/S 756 mmHg 56%
11:00 +34°C° 0 mm 6 m/S 755 mmHg 54%
12:00 +35°C° 0 mm 6 m/S 754 mmHg 52%
13:00 +35°C° 0 mm 6 m/S 754 mmHg 53%
14:00 +34°C° 0 mm 5 m/S 753 mmHg 55%
15:00 +34°C° 0 mm 5 m/S 753 mmHg 56%
16:00 +32°C° 0 mm 5 m/S 753 mmHg 63%
17:00 +30°C° 0 mm 4 m/S 754 mmHg 70%
18:00 +29°C° 0 mm 4 m/S 754 mmHg 77%
19:00 +28°C° 0 mm 4 m/S 755 mmHg 79%
20:00 +28°C° 0 mm 3 m/S 755 mmHg 81%
21:00 +28°C° 0 mm 3 m/S 756 mmHg 82%
22:00 +27°C° 0 mm 3 m/S 755 mmHg 83%
23:00 +27°C° 0 mm 3 m/S 755 mmHg 83%

übermorgen, 27 Oktober, Dienstag

Zeit Temperatur Niederschläge Wind Luftdruck Luftfeuchtigkeit
00:00 +27°C° 0 mm 3 m/S 755 mmHg 84%
01:00 +27°C° 0 mm 3 m/S 755 mmHg 85%
02:00 +27°C° 0 mm 3 m/S 754 mmHg 87%
03:00 +26°C° 0 mm 3 m/S 754 mmHg 88%
04:00 +27°C° 0 mm 3 m/S 754 mmHg 87%
05:00 +27°C° 0 mm 3 m/S 755 mmHg 85%
06:00 +27°C° 0 mm 3 m/S 755 mmHg 84%
07:00 +29°C° 0 mm 3 m/S 755 mmHg 76%
08:00 +32°C° 0 mm 4 m/S 756 mmHg 67%
09:00 +33°C° 0 mm 4 m/S 756 mmHg 59%
10:00 +34°C° 0 mm 5 m/S 755 mmHg 57%
11:00 +34°C° 0 mm 5 m/S 755 mmHg 54%
12:00 +35°C° 0 mm 5 m/S 754 mmHg 51%
13:00 +34°C° 0 mm 5 m/S 754 mmHg 53%
14:00 +34°C° 0 mm 5 m/S 753 mmHg 55%
15:00 +34°C° 0 mm 5 m/S 752 mmHg 57%
16:00 +32°C° 0 mm 5 m/S 753 mmHg 64%
17:00 +30°C° 0 mm 5 m/S 753 mmHg 71%
18:00 +28°C° 0 mm 5 m/S 753 mmHg 78%
19:00 +28°C° 0 mm 5 m/S 754 mmHg 80%
20:00 +28°C° 0 mm 5 m/S 754 mmHg 82%
21:00 +27°C° 0 mm 5 m/S 754 mmHg 84%
22:00 +28°C° 0 mm 5 m/S 754 mmHg 82%
23:00 +28°C° 0 mm 5 m/S 754 mmHg 80%

28 Oktober, Mittwoch

Zeit Temperatur Niederschläge Wind Luftdruck Luftfeuchtigkeit
00:00 +28°C° 0 mm 5 m/S 754 mmHg 77%
01:00 +28°C° 0 mm 5 m/S 753 mmHg 77%
02:00 +28°C° 0 mm 5 m/S 753 mmHg 76%
03:00 +28°C° 0 mm 5 m/S 753 mmHg 75%
04:00 +28°C° 0 mm 5 m/S 753 mmHg 73%
05:00 +28°C° 0 mm 5 m/S 754 mmHg 71%
06:00 +28°C° 0 mm 5 m/S 754 mmHg 69%
07:00 +29°C° 0 mm 5 m/S 755 mmHg 66%
08:00 +30°C° 0 mm 6 m/S 755 mmHg 64%
09:00 +30°C° 0 mm 6 m/S 756 mmHg 61%
10:00 +32°C° 0 mm 6 m/S 755 mmHg 57%
11:00 +34°C° 0 mm 6 m/S 755 mmHg 54%
12:00 +35°C° 0 mm 6 m/S 754 mmHg 50%
13:00 +34°C° 0 mm 6 m/S 754 mmHg 52%
14:00 +33°C° 0 mm 6 m/S 753 mmHg 54%
15:00 +33°C° 0 mm 6 m/S 753 mmHg 55%
16:00 +32°C° 0 mm 6 m/S 753 mmHg 61%
17:00 +29°C° 0 mm 5 m/S 753 mmHg 67%
18:00 +28°C° 0 mm 5 m/S 754 mmHg 73%
19:00 +28°C° 0 mm 5 m/S 754 mmHg 74%
20:00 +28°C° 0 mm 5 m/S 754 mmHg 75%
21:00 +28°C° 0 mm 5 m/S 755 mmHg 77%
22:00 +28°C° 0 mm 5 m/S 755 mmHg 77%
23:00 +27°C° 0 mm 5 m/S 754 mmHg 77%

29 Oktober, Donnerstag

Zeit Temperatur Niederschläge Wind Luftdruck Luftfeuchtigkeit
00:00 +27°C° 0 mm 5 m/S 754 mmHg 77%
01:00 +27°C° 0 mm 5 m/S 754 mmHg 75%
02:00 +27°C° 0 mm 5 m/S 754 mmHg 73%
03:00 +28°C° 0 mm 5 m/S 754 mmHg 72%
04:00 +28°C° 0 mm 5 m/S 754 mmHg 71%
05:00 +28°C° 0 mm 5 m/S 754 mmHg 70%
06:00 +28°C° 0 mm 5 m/S 755 mmHg 69%
07:00 +29°C° 0 mm 5 m/S 755 mmHg 65%
08:00 +30°C° 0 mm 5 m/S 756 mmHg 61%
09:00 +32°C° 0 mm 6 m/S 756 mmHg 57%
10:00 +33°C° 0 mm 6 m/S 756 mmHg 54%
11:00 +33°C° 0 mm 6 m/S 755 mmHg 51%
12:00 +34°C° 0 mm 6 m/S 755 mmHg 49%
13:00 +34°C° 0 mm 6 m/S 754 mmHg 50%
14:00 +34°C° 0 mm 6 m/S 754 mmHg 51%
15:00 +33°C° 0 mm 6 m/S 753 mmHg 52%
16:00 +32°C° 0 mm 5 m/S 754 mmHg 57%
17:00 +29°C° 0 mm 5 m/S 754 mmHg 63%
18:00 +28°C° 0 mm 4 m/S 754 mmHg 68%
19:00 +28°C° 0 mm 4 m/S 755 mmHg 73%
20:00 +27°C° 0 mm 4 m/S 755 mmHg 77%
21:00 +27°C° 0 mm 4 m/S 756 mmHg 81%
22:00 +27°C° 0 mm 5 m/S 756 mmHg 79%
23:00 +28°C° 0 mm 5 m/S 755 mmHg 77%

30 Oktober, Freitag

Zeit Temperatur Niederschläge Wind Luftdruck Luftfeuchtigkeit
00:00 +28°C° 0 mm 6 m/S 755 mmHg 75%
01:00 +28°C° 0 mm 6 m/S 755 mmHg 76%
02:00 +28°C° 0 mm 6 m/S 755 mmHg 76%
03:00 +28°C° 0 mm 5 m/S 754 mmHg 76%
04:00 +28°C° 0.1 mm 5 m/S 755 mmHg 75%
05:00 +28°C° 0.1 mm 6 m/S 755 mmHg 74%
06:00 +28°C° 0.1 mm 6 m/S 756 mmHg 73%
07:00 +29°C° 0 mm 6 m/S 756 mmHg 67%
08:00 +32°C° 0 mm 6 m/S 757 mmHg 61%
09:00 +33°C° 0 mm 6 m/S 757 mmHg 55%
10:00 +34°C° 0 mm 7 m/S 756 mmHg 52%
11:00 +35°C° 0 mm 7 m/S 756 mmHg 48%
12:00 +36°C° 0 mm 7 m/S 755 mmHg 45%
13:00 +35°C° 0 mm 7 m/S 755 mmHg 46%
14:00 +35°C° 0 mm 6 m/S 754 mmHg 48%
15:00 +34°C° 0 mm 6 m/S 753 mmHg 49%
16:00 +33°C° 0 mm 6 m/S 754 mmHg 56%
17:00 +30°C° 0 mm 5 m/S 754 mmHg 63%
18:00 +29°C° 0 mm 4 m/S 754 mmHg 71%
19:00 +28°C° 0 mm 4 m/S 755 mmHg 74%
20:00 +28°C° 0 mm 5 m/S 755 mmHg 77%
21:00 +28°C° 0 mm 5 m/S 756 mmHg 81%
22:00 +28°C° 0 mm 5 m/S 756 mmHg 81%
23:00 +28°C° 0 mm 5 m/S 755 mmHg 81%
Mehr zeigen